Regional Weather Roundup
Issued by NWS

Home | Current Version | Previous Version | Graphics & Text | Print | Product List | Glossary On
Versions: 1 2 3 4 5 6 7 8 9 10 11 12 13 14 15 16 17 18 19 20 21 22 23 24 25 26 27 28 29 30 31 32 33 34 35 36 37 38 39 40 41 42 43 44 45 46 47 48 49 50
276
ASUS43 KMPX 211410
RWRMN
WEATHER ROUNDUP FOR MINNESOTA
NATIONAL WEATHER SERVICE TWIN CITIES/CHANHASSEN MN
900 AM CDT THU SEP 21 2017


NOTE: "FAIR" INDICATES FEW OR NO CLOUDS BELOW 12,000 FEET WITH NO
SIGNIFICANT WEATHER AND/OR OBSTRUCTIONS TO VISIBILITY. N/A MEANS
CURRENT SKY AND/OR WEATHER CONDITIONS ARE NOT AVAILABLE.

MNZ060>063-068>070-211500-
   Twin Cities Metro

CITY           SKY/WX    TMP DP  RH WIND       PRES   REMARKS
TWIN CITIES    SUNNY     62  53  72 E15       29.98F
ST PAUL        SUNNY     61  54  77 SE6       29.99F
CRYSTAL        SUNNY     60  49  66 E6        29.96F
BLAINE         SUNNY     59  54  82 E7        29.97F
LAKEVILLE      SUNNY     55  55 100 E3        29.97F
EDEN PRAIRIE   SUNNY     61  51  70 E8        29.96F
SOUTH ST PAUL  SUNNY     61  51  70 E5        29.98F
LAKE ELMO      FAIR      59  54  82 E5        30.00F
$$
MNZ001>005-007-008-013>017-022>024-027-028-211500-
   Northwest Minnesota

CITY           SKY/WX    TMP DP  RH WIND       PRES   REMARKS
BEMIDJI        SUNNY     56  46  70 SE9       29.94R
HALLOCK          N/A     59  48  67 S20       29.81S
ROSEAU         MOSUNNY   59  46  63 S15       29.86R
WARROAD        MOSUNNY   61  48  63 S13       29.88S
THIEF RVR FALL MOSUNNY   61  46  57 S13       29.89R
CROOKSTON      CLOUDY    59  48  67 S15       29.86R
FOSSTON        SUNNY     57  46  67 SE9       29.89S
DETROIT LAKES  SUNNY     59  46  63 SE12      29.91F
MOORHEAD       SUNNY     57  48  72 SE16      29.87S
PARK RAPIDS    SUNNY     56  47  71 SE9       29.94S
MAHNOMEN       FAIR      59  45  58 S9        29.90R
$$
MNZ006-009>011-018-025>026-211500-
   North Central Minnesota

CITY           SKY/WX    TMP DP  RH WIND       PRES   REMARKS
BAUDETTE       SUNNY     55  46  71 S12G20    29.92R
FLAG ISLAND    MOSUNNY   61  52  72 S16       29.86F
INTL FALLS     SUNNY     54  46  74 SE8       29.97F
WASKISH        SUNNY     57  48  72 SE7       29.93S
BIG FORK       SUNNY     55  48  76 SE5       29.97F
LONGVILLE      SUNNY     52  52 100 SE5       29.96S
GRAND RAPIDS   SUNNY     52  46  80 SE8       30.01F
CRANE LAKE     SUNNY     48  48 100 S3        30.03S
ORR            SUNNY     50  45  81 SE5       29.99S
COOK           SUNNY     52  48  87 CALM      30.02S
WALKER         FAIR      57  45  64 SE8       29.95S
$$
MNZ012-019>021-037-211500-
   Northeast Minnesota

CITY           SKY/WX    TMP DP  RH WIND       PRES   REMARKS
DULUTH         SUNNY     56  54  93 SE7       30.04R
ELY            SUNNY     52  46  82 CALM      30.04S
HIBBING        SUNNY     49  46  90 SE6       30.02S
EVELETH        SUNNY     50  47  90 CALM      30.04S
DULUTH HARBOR  SUNNY     57  55  94 N5        30.04S
TWO HARBORS    SUNNY     59  54  82 NE3       30.03R
SILVER BAY     SUNNY     52  48  87 CALM      30.04R
GRAND MARAIS     N/A     61  50  67 NE3       30.06R
G MARAIS ARPRT SUNNY     55  45  67 E6        30.08R
$$
MNZ029>031-032-039>041-046>048-054>057-064-211500-
   West Central Minnesota

CITY           SKY/WX    TMP DP  RH WIND       PRES   REMARKS
FERGUS FALLS   SUNNY     61  48  63 S12       29.90S
WHEATON        SUNNY     57  48  72 SE10      29.90S
MORRIS         SUNNY     57  48  72 SE13      29.90S
ALEXANDRIA     SUNNY     58  47  66 SE15G22   29.93F
ELBOW LAKE     FAIR      57  49  72 E10       29.91S
WADENA         SUNNY     55  46  71 SE8       29.93F
GLENWOOD       SUNNY     55  48  76 SE12      29.93F
APPLETON       SUNNY     57  48  72 SE12      29.89F
BENSON         SUNNY     57  48  72 S8        29.93F
ORTONVILLE     SUNNY     54  48  82 NE9       29.89S
MADISON        SUNNY     57  52  82 SE9       29.89S
WILLMAR        FAIR      57  52  82 E8        29.94F
$$
MNZ033>034-036-042>043-049>051-058-059-211500-
   Central Minnesota

CITY           SKY/WX    TMP DP  RH WIND       PRES   REMARKS
ST CLOUD       SUNNY     56  50  80 E7        29.96F
SAUK CENTRE    FAIR      56  50  80 SE7       29.94F
PAYNESVILLE    SUNNY     60  50  70 SE9       29.94F
AITKIN         SUNNY     54  48  82 E5        29.97S
PINE RIVER     SUNNY     52  46  82 SE7       29.99S
BRAINERD       SUNNY     56  48  74 SE6       29.97S
LITTLE FALLS   SUNNY     55  43  62 SE6       29.95F
LITCHFIELD     SUNNY     61  54  77 SE12      29.95F
BUFFALO        SUNNY     59  49  70 E6        29.98S
MAPLE LAKE     SUNNY     60  53  78 E5        29.97F
HUTCHINSON     MOSUNNY   59  54  81 E8        29.96F
$$
MNZ037-044-045-052-053-211500-
   East Central Minnesota

CITY           SKY/WX    TMP DP  RH WIND       PRES   REMARKS
PRINCETON      SUNNY     54  54 100 E6        29.99S
MORA           SUNNY     50  50 100 CALM      30.01F
CAMBRIDGE      SUNNY     59  48  67 E3        29.99F
RUSH CITY      SUNNY     52  49  89 CALM      30.00F
MOOSE LAKE     SUNNY     46  46 100 CALM      30.01S
HINCKLEY       FAIR      52  50  93 E3        30.01F
CLOQUET        SUNNY     54  46  76 E3        30.03R
MCGREGOR       SUNNY     52  52 100 SE5       30.01S
$$
MNZ071>073-080-081-089-090-097-098-211500-
   Southwest Minnesota

CITY           SKY/WX    TMP DP  RH WIND       PRES   REMARKS
MONTEVIDEO     SUNNY     57  52  82 S9        29.90F
GRANITE FALLS  SUNNY     57  51  80 E7        29.92F
CANBY          SUNNY     56  52  86 E7        29.89F
MARSHALL       SUNNY     57  50  77 SE12      29.90F
REDWOOD FALLS  SUNNY     57  50  77 SE7       29.92F
OLIVIA         SUNNY     59  50  72 SE9       29.92F
PIPESTONE      SUNNY     61  52  72 SE12G17   29.89F
WORTHINGTON    MOSUNNY   59  53  80 E6        29.92F
JACKSON        SUNNY     57  52  82 CALM      29.92F
TRACY          SUNNY     60  53  79 SE8       29.91F
SLAYTON        SUNNY     52  49  87 SE6       29.93F
$$
MNZ065>067-074>077-082>085-091>093-211500-
   South Central Minnesota

CITY           SKY/WX    TMP DP  RH WIND       PRES   REMARKS
MANKATO        SUNNY     62  53  72 E10       29.94F
NEW ULM        SUNNY     59  52  77 E8        29.94S
ST JAMES       SUNNY     57  52  82 E5        29.93F
FAIRMONT       SUNNY     60  54  80 SE8       29.94F
GLENCOE        SUNNY     60  55  83 E9        29.95S
FARIBAULT      SUNNY     61  54  77 NE5       29.97S
OWATONNA       SUNNY     61  55  82 E8        29.97R
WASECA         SUNNY     59  52  77 E9        29.97S
ALBERT LEA     SUNNY     64  55  72 SE10      29.97S
$$
MNZ078>079-086>088-094>096-211500-
   Southeast Minnesota

CITY           SKY/WX    TMP DP  RH WIND       PRES   REMARKS
ROCHESTER      MOSUNNY   62  57  83 E8        30.01R
RED WING       SUNNY     61  52  72 E6        29.98S
STANTON        SUNNY     57  54  89 NE5       29.96F
DODGE CENTER   SUNNY     61  54  77 E8        29.99R
WINONA         FOG       55  55 100 CALM      30.00S VSB 1
AUSTIN         SUNNY     63  57  82 SE7       29.98R
PRESTON        CLOUDY    59  54  84 SE5       30.01R
$$
ABBREVIATIONS USED IN REMARKS
   TC - TEMPERATURES IN CELSIUS
  WCI - WIND CHILL INDEX
   HX - HEAT INDEX
  VSB - VISIBILITY
$$




USA.gov is the U.S. government's official web portal to all federal, state and local government web resources and services.